Home   Weather   36°04'N, 120°22'E   Past weeks
Flag for China

Past Weather in 36°04'N, 120°22'E, China — Yesterday and Last 2 Weeks

Now
19 °F

Sunny.


Feels Like: 19 °F
Forecast: 40 / 24 °F
Wind: 1 mph from North

Location: Qingdao Airport

Current Time: Feb 16, 2019 at 8:05:56 am

Latest Report: Feb 16, 2019 at 7:00 am


Visibility: 10 mi

Pressure: 30.45 "Hg

Humidity: 68%

Dew Point: 10 °F

Location of 36°04'N, 120°22'ELocation

Past Weather in 36°04'N, 120°22'E — Graph

°F

36°04'N, 120°22'E Temperature Yesterday

Maximum temperature yesterday: 37 °F (at 12:00 pm)
Minimum temperature yesterday: 23 °F (at 10:00 pm)
Average temperature yesterday: 31 °F

High & Low Weather Summary for the Past Weeks

 TemperatureHumidityPressure
High50 °F (Feb 5, 11:00 am)100% (Feb 6, 4:00 am)30.60 "Hg (Feb 6, 4:00 am)
Low18 °F (Feb 11, 6:00 am)27% (Feb 10, 3:00 pm)29.89 "Hg (Feb 2, 4:00 pm)
Average33 °F68%30.34 "Hg
* Reported Feb 1 6:00 am — Feb 16 6:00 am, 36°04'N, 120°22'E. Weather by CustomWeather, © 2019

Note: Actual official high and low records may vary slightly from our data, if they occured in-between our weather recording intervals... More about our weather records

Advertising

36°04'N, 120°22'E Weather History for the Previous 24 Hours

Scroll right to see more
 ConditionsComfort  
Time TempWeatherWind HumidityBarometerVisibility
6:00 am
Sat, Feb 16
18 °FClear.1 mph73%30.45 "Hg10 mi
5:00 am19 °FClear.1 mph73%30.42 "Hg10 mi
4:00 am19 °FClear.No wind79%30.45 "Hg10 mi
3:00 am21 °FClear.No wind74%30.45 "Hg10 mi
2:00 am23 °FPassing clouds.3 mph68%30.45 "HgN/A
1:00 am23 °FClear.1 mph68%30.42 "Hg10 mi
12:00 am23 °FClear.1 mph68%30.42 "Hg10 mi
11:00 pm
Fri, Feb 15
25 °FClear.3 mph63%30.42 "Hg10 mi
10:00 pm23 °FClear.6 mph68%30.42 "Hg10 mi
9:00 pm25 °FClear.8 mph63%30.42 "Hg10 mi
8:00 pm27 °FClear.10 mph59%30.39 "Hg10 mi
7:00 pm28 °FClear.13 mph55%30.39 "Hg10 mi
6:00 pm30 °FClear.13 mph51%30.36 "Hg10 mi
5:00 pm32 °FSunny.15 mph44%30.33 "Hg10 mi
4:00 pm34 °FScattered clouds.13 mph44%30.33 "HgN/A
3:00 pm36 °FScattered clouds.13 mph48%30.30 "HgN/A
2:00 pm37 °FScattered clouds.10 mph48%30.30 "HgN/A
1:00 pm37 °FScattered clouds.10 mph56%30.33 "Hg4 mi
12:00 pm37 °FScattered clouds.10 mph60%30.33 "Hg3 mi
11:00 am32 °FIce fog.10 mph75%30.36 "Hg2 mi
10:00 am32 °FIce fog.10 mph87%30.36 "Hg1 mi
9:00 am32 °FIce fog.8 mph87%30.36 "Hg1 mi
8:00 am32 °FIce fog.8 mph87%30.36 "Hg1 mi
Weather by CustomWeather, © 2019

See weather overview